Location: Newark
(3.0500°N, 36.0167°E)
Time: 08:38:22
(UTC+00:00)

Transit 2A Rocket - All Passes

Search period start: 19 August 2019 00:00
Search period end: 29 August 2019 00:00
Orbit: 590 x 913 km, 66.7° (Epoch: 18 August)

Date Brightness Start Highest point End Pass type
(mag) Time Alt. Az. Time Alt. Az. Time Alt. Az.
19 Aug - 03:59:48 10° NNW 04:04:04 87° ENE 04:08:25 10° SSE daylight
19 Aug - 14:50:19 10° SE 14:53:36 15° ESE 14:56:52 10° ENE daylight
19 Aug - 16:30:12 10° SW 16:36:01 47° WNW 16:41:41 10° N visible
20 Aug - 03:17:46 10° N 03:21:38 34° ENE 03:25:33 10° SE daylight
20 Aug - 15:47:26 10° SSW 15:53:34 89° ESE 15:59:30 10° NNE daylight
21 Aug - 02:36:50 10° NE 02:39:11 14° ENE 02:41:32 10° ESE visible
21 Aug - 04:18:12 10° WNW 04:21:25 21° WSW 04:24:43 10° SSW daylight
21 Aug - 15:05:17 10° S 15:11:06 46° ESE 15:16:45 10° NE daylight
21 Aug - 16:50:09 10° WSW 16:53:29 15° WNW 16:56:46 10° NW visible
22 Aug - 03:34:50 10° NW 03:38:58 50° WSW 03:43:12 10° S daylight
22 Aug - 14:23:52 10° SSE 14:28:37 24° ESE 14:33:15 10° ENE daylight
22 Aug - 16:05:47 10° SW 16:11:00 30° WNW 16:16:05 10° N visible
23 Aug - 02:52:19 10° N 02:56:32 62° ENE 03:00:50 10° SSE visible
23 Aug - 13:44:16 10° SE 13:46:06 11° ESE 13:47:54 10° E daylight
23 Aug - 15:22:33 10° SSW 15:28:33 59° WNW 15:34:20 10° N daylight
24 Aug - 02:10:34 10° NNE 02:14:06 25° ENE 02:17:41 10° SE visible
24 Aug - 03:54:44 10° W 03:56:21 12° WSW 03:58:00 10° SW daylight
24 Aug - 14:40:00 10° SSW 14:46:05 72° ESE 14:51:58 10° NNE daylight
25 Aug - 01:30:47 10° ENE 01:31:37 10° ENE 01:32:28 10° E visible
25 Aug - 03:10:13 10° NW 03:13:52 28° WSW 03:17:39 10° S visible
25 Aug - 13:58:04 10° S 14:03:36 36° ESE 14:08:59 10° NE daylight
25 Aug - 15:41:49 10° WSW 15:45:59 19° WNW 15:50:04 10° NNW daylight
26 Aug - 02:27:12 10° NNW 02:31:25 70° WSW 02:35:47 10° SSE visible
26 Aug - 13:17:01 10° SSE 13:21:07 19° ESE 13:25:07 10° ENE daylight
26 Aug - 14:57:57 10° SW 15:03:31 38° WNW 15:08:54 10° N daylight
27 Aug - 01:44:55 10° N 01:49:00 45° ENE 01:53:10 10° SE visible
27 Aug - 14:14:58 10° SSW 14:21:04 74° WNW 14:26:55 10° NNE daylight
28 Aug - 01:03:31 10° NNE 01:06:33 19° ENE 01:09:38 10° ESE visible
28 Aug - 02:46:08 10° WNW 02:48:48 16° WSW 02:51:32 10° SSW visible
28 Aug - 13:32:37 10° S 13:38:36 57° ESE 13:44:21 10° NNE daylight
28 Aug - 15:18:58 10° W 15:20:59 12° WNW 15:22:58 10° NW daylight
